Regional Weather Roundup
Issued by NWS Albany, NY

Home | Current Version | Previous Version | Text Only | Print | Product List | Glossary On
Versions: 1 2 3 4 5 6 7 8 9 10 11 12 13 14 15 16 17 18 19 20 21 22 23 24 25 26 27 28
000
ASUS41 KALY 250010
RWRALY

NEW YORK STATE HOURLY WEATHER ROUNDUP
NATIONAL WEATHER SERVICE ALBANY NY
800 PM EDT SAT JUN 24 2017

NOTE: "FAIR" INDICATES FEW OR NO CLOUDS BELOW 12,000 FEET WITH NO
SIGNIFICANT WEATHER AND/OR NO OBSTRUCTIONS TO VISIBILITY.

NYZ032-033-038>043-046>054-057>066-NYZ062>081-082-084-250100-
EAST


CITY           SKY/WX    TMP DP  RH WIND       PRES   REMARKS
ALBANY         MOCLDY    75  55  49 NW8       29.80R
GLENS FALLS    CLEAR     75  52  44 CALM      29.79R
POUGHKEEPSIE   CLEAR     80  55  42 CALM      29.79R
NEWBURGH       PTCLDY    81  59  47 W6        29.82R
MONTGOMERY     CLEAR     77  59  53 SW5       29.81R
WHITE PLAINS   PTCLDY    79  55  44 W5        29.83R
ISLIP          PTCLDY    80  56  43 W6        29.82R
NEW YORK CITY  PTCLDY    85  56  37 W15       29.82R
CENTRAL PARK   CLEAR     82  56  40 W6        29.85R
$$

NYZ005>009-017-018-044>046-055-056-250100-
CENTRAL


CITY           SKY/WX    TMP DP  RH WIND       PRES   REMARKS
FULTON         CLOUDY    69  54  58 SW9       29.85R
SYRACUSE       PTCLDY    69  53  56 W10       29.85R
ROME           CLEAR     70  52  52 W10       29.84R
ELMIRA         CLEAR     73  54  49 W10       29.86
BINGHAMTON     NOT AVBL
MONTICELLO     CLEAR     73  55  53 SW3       29.87R
$$

NYZ026>034-041>043-087-250100-
NORTH


CITY           SKY/WX    TMP DP  RH WIND       PRES   REMARKS
WATERTOWN      PTCLDY    68  59  73 W10       29.81R
FORT DRUM      NOT AVBL
OGDENSBURG     FAIR      72  57  59 SW9       29.76R
MASSENA        HVY RAIN  66  58  75 W20G29    29.78R
SARANAC LAKE   CLEAR     66  50  56 W9G18     29.80R
PLATTSBURGH    CLEAR     75  51  43 W6        29.72R
$$

NYZ001>004-010>016-019>021-085-250100-
WEST


CITY           SKY/WX    TMP DP  RH WIND       PRES   REMARKS
NIAGARA FALLS  CLOUDY    67  57  70 SW9       29.88R
BUFFALO        CLOUDY    69  51  52 SW15      29.89R
DUNKIRK        MOCLDY    65  59  81 S5        29.92R
JAMESTOWN      CLEAR     66  50  55 W9        29.94S
WELLSVILLE     CLEAR     67  48  50 W15G22    29.96R
ROCHESTER      PTCLDY    65  59  81 W7        29.88R
PENN YAN       PTCLDY    69  51  52 NW12G17   29.89R
$$

             KEY
       WCI = WIND CHILL INDEX
       VSB = VISIBILITY
       HX  = HEAT INDEX
$$




USA.gov is the U.S. government's official web portal to all federal, state and local government web resources and services.